Location: Westminster
(33.3626°N, 96.4619°W)
Time: 13:17:52
(UTC+00:00)

Cosmos 1340 Rocket - Pass Details

Date: 03 December 2021
Orbit: 528 x 557 km, 81.2° (Epoch: 29 January)

Event Time Altitude Azimuth Distance (km) Brightness Sun altitude
Rises 12:25:39 0° 182° (S) 2,658 6.6 -10.0°
Reaches altitude 10° 12:27:47 10° 180° (S) 1,776 5.7 -9.6°
Maximum altitude 12:31:40 71° 96° (E) 570 3.1 -8.9°
Drops below altitude 10° 12:35:37 10° 13° (NNE) 1,806 5.4 -8.1°
Sets 12:37:48 0° 11° (N) 2,707 6.2 -7.7°
